Espace membre
Imprimable
Challenges > Delhalle - Louette St Pierre, 23/07/2011, BEL - L'Ardennaise
Liste des rapports > Delhalle - 22.8km - Classement
Recherche: Page: [1]
34 Entrées
 
Les réclamations ne sont plus acceptées, les résultats sont considérés comme définitifs.
RangNrNomAgeIOCLigueEquipeRéelTempsTkmMoy.ScrPtsLocalité
1.2665FFAVIER Anne53BEL1:45:081:45:114:37 13.0189822MONT SAINT HUBERT
2.867FVAN ORSHOVEN Goedele50BEL1:54:591:55:125:04 11.88157691LEUVEN
3.466FDEMOULIN Brigitte51BELSMACRCNAMUR1:55:251:55:345:05 11.84159686LUSTIN
4.885FSAC Myriam50BELACBBS1:55:461:55:505:05 11.8116268111
5.218FALEXANDRE Francoise56BEL1:56:451:56:535:08 11.70170668VEDRIN
6.2082FPIACENZA Martha52ITARFCLRFCL ROADRUNNER2:02:432:02:495:24 11.14235580GRACE-HOLLOGNE
7.532FDE VROEDE Nadine50BELUSBWROAD TEAM2:05:182:05:375:31 10.89270538BRAINE L'ALLEUD
8.2096FYERNAUX Huguette50BEL2:05:472:05:565:32 10.86272533NOLLEVAUX
9.2705FMAYETTE Marylene542:06:322:06:525:34 10.78279523
10.94FPELTGEN Marie-Paule50BEL2:07:452:08:195:38 10.66297503EGHEZEE
11.2587FURBAIN Ginette59BELSPIBO2:14:002:14:175:54 10.19358419BELLIGNIES
12.2718FVALKENEERS Claire51BEL2:13:412:14:205:54 10.18359421HASSELT
13.2721FGUENIN Veronique51BELASPTT CHALONS EN CHAMPAGN2:14:382:14:455:55 10.15367409
14.457FMARGUINIO Danielle59BEL19502:20:012:20:316:10 9.74414342HEUSY
15.2545FLORIES Linda50BELAXA2:21:222:21:226:13 9.68421328LEMBEK
16.2463FBAWIN Brigitte58BELJAMES LOUVAIN LA NEUVE2:24:402:25:106:22 9.42447289GENAPPE
17.2571FSCHELDEWAERT Gilberte55BEL2:27:252:27:336:29 9.27456265SINT-AMANDSBERG - GENT
18.489FMAROT Anne51BELUSBW2:31:032:31:306:39 9.03484224BRAINE-L'ALLEUD
19.2482FDE BERNARDINI Sonia55FRALUMES COURIR2:30:592:31:436:40 9.02485224DOM-LE-MESNIL
20.72FROUZEEUW Ginette54BELRIWA2:30:562:31:446:40 9.02488222RIXENSART
21.2653FCOUPE Hélène50BEL2:32:512:33:286:44 8.91504200
22.2600FWALON Francoise55BELLDLV2:33:522:34:426:48 8.84515187BRUXELLES
23.10FHERCOT Marie-Astrid54BELUACRRTCHATEL2:35:322:36:216:52 8.75521173CHATELET
24.333FJENICOT Myriam56BELHRC2:42:252:42:457:09 8.41534121HABAY-LA-NEUVE
25.2556FPAQUOT Marylène53BEL2:46:132:46:547:20 8.2054194GEDINNE
26.2635FPLISSON Claudine56BELDEVILLE SPORTS2:46:142:46:557:20 8.2054293
27.2555FPAESEN Trinette57BELSACN2:49:032:49:207:26 8.0854673
28.2501FDIERCKX Agnes52BELSACN2:49:362:49:527:27 8.0554869
29.628FTULCINSKY Helene52BELENJAMBEE2:51:582:52:317:34 7.9355253WOLUWE SAINT LAMBERT
30.2554FPAESEN Carine51BELSACN2:53:102:53:277:37 7.8955444
31.2480FCOLLARD Régine51BELRCBG2:55:212:55:557:43 7.7855829GRAIDE
32.371FMARCIN Monique50BELARCHARCH3:00:183:00:537:56 7.565627CINEY
33.2114FMONFORT Bernadette55BELSPITEUX3:18:033:18:348:43 6.895702VINALMONT
34.89FVANHUFFELEN Josseline57BELAXA TEAM3:24:043:24:048:57 6.705712MELLERY
DNF: abandon; DSQ: disqualifié; Vitesse en km/h
Page: [1]